Location: Düngen
(52.0952°N, 10.0219°E)
Time: 15:39:50
(UTC+00:00)

Cosmos 2344 - Pass Details

Date: 11 March 2026
Orbit: 1194 x 3048 km, 63.3° (Epoch: 14 April)

Event Time Altitude Azimuth Distance (km) Brightness Sun altitude
Rises 20:27:06 0° 307° (NW) 4,110 7.5 -28.4°
Reaches altitude 10° 20:29:45 10° 312° (NW) 3,184 6.6 -28.8°
Maximum altitude 20:37:02 54° 30° (NNE) 1,636 4.1 -29.6°
Enters shadow 20:39:11 44° 73° (ENE) 1,900 4.2 -29.9°
